Time,TemperatureF,DewpointF,PressureIn,WindDirection,WindDirectionDegrees,WindSpeedMPH,WindSpeedGustMPH,Humidity,HourlyPrecipIn,Conditions,Clouds,dailyrainin,SolarRadiationWatts/m^2,SoftwareType,DateUTC
2013-09-08 00:15:00,62.4,53.0,29.77,WSW,246,2.0,10.0,71,0.00,,,0.00,0,weatherlink.com 1.10,2013-09-08 04:15:00,
2013-09-08 00:29:00,62.4,52.0,29.78,West,266,6.0,9.0,69,0.00,,,0.00,0,weatherlink.com 1.10,2013-09-08 04:29:00,
2013-09-08 00:45:00,62.6,51.0,29.77,WSW,249,5.0,8.0,66,0.00,,,0.00,0,weatherlink.com 1.10,2013-09-08 04:45:00,
2013-09-08 00:59:00,62.9,50.0,29.77,West,261,5.0,9.0,64,0.00,,,0.00,0,weatherlink.com 1.10,2013-09-08 04:59:00,
2013-09-08 01:15:00,62.9,51.0,29.77,West,261,5.0,6.0,65,0.00,,,0.00,0,weatherlink.com 1.10,2013-09-08 05:15:00,
2013-09-08 01:30:00,62.7,50.0,29.77,West,261,5.0,8.0,63,0.00,,,0.00,0,weatherlink.com 1.10,2013-09-08 05:30:00,
2013-09-08 01:45:00,62.7,49.0,29.76,West,261,1.0,6.0,62,0.00,,,0.00,0,weatherlink.com 1.10,2013-09-08 05:45:00,
2013-09-08 02:00:00,63.1,49.0,29.76,WSW,256,4.0,8.0,61,0.00,,,0.00,0,weatherlink.com 1.10,2013-09-08 06:00:00,
2013-09-08 02:15:00,63.4,49.0,29.75,SW,233,0.0,8.0,60,0.00,,,0.00,0,weatherlink.com 1.10,2013-09-08 06:15:00,
2013-09-08 02:30:00,63.5,48.0,29.74,SW,234,0.0,5.0,58,0.00,,,0.00,0,weatherlink.com 1.10,2013-09-08 06:30:00,
2013-09-08 02:45:00,61.5,50.0,29.74,SW,234,1.0,5.0,66,0.00,,,0.00,0,weatherlink.com 1.10,2013-09-08 06:45:00,
2013-09-08 03:00:00,63.1,48.0,29.73,West,263,1.0,11.0,59,0.00,,,0.00,0,weatherlink.com 1.10,2013-09-08 07:00:00,
2013-09-08 03:15:00,63.2,49.0,29.72,WNW,283,5.0,14.0,60,0.00,,,0.00,0,weatherlink.com 1.10,2013-09-08 07:15:00,
2013-09-08 03:30:00,62.9,48.0,29.72,SW,232,5.0,7.0,59,0.00,,,0.00,0,weatherlink.com 1.10,2013-09-08 07:30:00,
2013-09-08 03:45:00,62.9,49.0,29.72,West,277,1.0,8.0,60,0.00,,,0.00,0,weatherlink.com 1.10,2013-09-08 07:45:00,
2013-09-08 04:00:00,63.1,48.0,29.72,West,267,6.0,7.0,58,0.00,,,0.00,0,weatherlink.com 1.10,2013-09-08 08:00:00,
2013-09-08 04:15:00,63.4,48.0,29.71,WSW,253,6.0,13.0,58,0.00,,,0.00,0,weatherlink.com 1.10,2013-09-08 08:15:00,
2013-09-08 04:45:00,63.2,48.0,29.71,SW,227,2.0,9.0,58,0.00,,,0.00,0,weatherlink.com 1.10,2013-09-08 08:45:00,
2013-09-08 05:00:00,62.6,48.0,29.70,SW,224,0.0,7.0,60,0.00,,,0.00,0,weatherlink.com 1.10,2013-09-08 09:00:00,
2013-09-08 05:15:00,62.1,49.0,29.69,SW,232,6.0,8.0,62,0.00,,,0.00,0,weatherlink.com 1.10,2013-09-08 09:15:00,
2013-09-08 05:30:00,61.6,49.0,29.69,WSW,237,1.0,7.0,64,0.00,,,0.00,0,weatherlink.com 1.10,2013-09-08 09:30:00,
2013-09-08 05:45:00,61.5,50.0,29.69,WSW,252,0.0,9.0,65,0.00,,,0.00,0,weatherlink.com 1.10,2013-09-08 09:45:00,
2013-09-08 06:00:00,61.5,51.0,29.69,SW,226,5.0,9.0,68,0.00,,,0.00,0,weatherlink.com 1.10,2013-09-08 10:00:00,
2013-09-08 06:15:00,61.3,51.0,29.69,SW,222,0.0,4.0,68,0.00,,,0.00,0,weatherlink.com 1.10,2013-09-08 10:15:00,
2013-09-08 06:30:00,60.2,51.0,29.69,SW,222,0.0,4.0,72,0.00,,,0.00,9,weatherlink.com 1.10,2013-09-08 10:30:00,
2013-09-08 06:45:00,60.1,52.0,29.71,SW,222,0.0,0.0,74,0.00,,,0.00,14,weatherlink.com 1.10,2013-09-08 10:45:00,
2013-09-08 07:00:00,60.5,51.0,29.71,West,267,0.0,7.0,72,0.00,,,0.00,23,weatherlink.com 1.10,2013-09-08 11:00:00,
2013-09-08 07:15:00,61.5,52.0,29.69,West,270,0.0,6.0,71,0.00,,,0.00,62,weatherlink.com 1.10,2013-09-08 11:15:00,
2013-09-08 07:30:00,61.8,53.0,29.69,West,270,0.0,6.0,73,0.00,,,0.00,60,weatherlink.com 1.10,2013-09-08 11:30:00,
2013-09-08 07:45:00,61.3,53.0,29.69,West,269,0.0,6.0,75,0.00,,,0.00,53,weatherlink.com 1.10,2013-09-08 11:45:00,
2013-09-08 08:00:00,61.0,54.0,29.69,SW,227,4.0,9.0,77,0.00,,,0.00,44,weatherlink.com 1.10,2013-09-08 12:00:00,
2013-09-08 08:15:00,61.5,55.0,29.69,West,259,0.0,9.0,78,0.00,,,0.00,47,weatherlink.com 1.10,2013-09-08 12:15:00,
2013-09-08 08:30:00,62.9,56.0,29.68,WSW,241,5.0,8.0,77,0.00,,,0.00,88,weatherlink.com 1.10,2013-09-08 12:30:00,
2013-09-08 08:45:00,64.5,57.0,29.69,WNW,286,7.0,16.0,76,0.00,,,0.00,155,weatherlink.com 1.10,2013-09-08 12:45:00,
2013-09-08 09:00:00,65.6,57.0,29.69,WSW,257,10.0,18.0,74,0.00,,,0.00,183,weatherlink.com 1.10,2013-09-08 13:00:00,
2013-09-08 09:15:00,66.1,58.0,29.69,WSW,250,8.0,16.0,74,0.00,,,0.00,63,weatherlink.com 1.10,2013-09-08 13:15:00,
2013-09-08 09:30:00,66.6,58.0,29.69,WNW,287,8.0,14.0,74,0.00,,,0.00,313,weatherlink.com 1.10,2013-09-08 13:30:00,
2013-09-08 09:45:00,66.3,57.0,29.70,WSW,257,7.0,18.0,73,0.00,,,0.00,160,weatherlink.com 1.10,2013-09-08 13:45:00,
2013-09-08 10:00:00,66.4,58.0,29.70,West,262,10.0,18.0,75,0.00,,,0.00,149,weatherlink.com 1.10,2013-09-08 14:00:00,
2013-09-08 10:15:00,65.6,58.0,29.71,WNW,287,12.0,24.0,75,0.00,,,0.00,341,weatherlink.com 1.10,2013-09-08 14:15:00,
2013-09-08 10:30:00,65.3,58.0,29.71,NW,311,9.0,11.0,76,0.00,,,0.00,114,weatherlink.com 1.10,2013-09-08 14:30:00,
2013-09-08 10:45:00,66.4,58.0,29.71,NNW,348,10.0,23.0,74,0.00,,,0.00,241,weatherlink.com 1.10,2013-09-08 14:45:00,
2013-09-08 11:00:00,63.4,55.0,29.72,NNW,331,13.0,24.0,73,0.00,,,0.00,125,weatherlink.com 1.10,2013-09-08 15:00:00,
2013-09-08 11:15:00,61.8,53.0,29.74,NNW,336,7.0,22.0,73,0.00,,,0.00,130,weatherlink.com 1.10,2013-09-08 15:15:00,
2013-09-08 11:30:00,61.5,52.0,29.74,NW,319,5.0,21.0,72,0.00,,,0.00,415,weatherlink.com 1.10,2013-09-08 15:30:00,
2013-09-08 11:45:00,63.2,51.0,29.74,NNW,346,5.0,22.0,64,0.00,,,0.00,216,weatherlink.com 1.10,2013-09-08 15:45:00,
2013-09-08 12:00:00,63.5,51.0,29.75,NW,304,8.0,22.0,64,0.00,,,0.00,800,weatherlink.com 1.10,2013-09-08 16:00:00,
2013-09-08 12:15:00,65.6,50.0,29.75,West,260,6.0,20.0,58,0.00,,,0.00,858,weatherlink.com 1.10,2013-09-08 16:15:00,
2013-09-08 12:30:00,65.6,47.0,29.75,WSW,250,4.0,25.0,51,0.00,,,0.00,830,weatherlink.com 1.10,2013-09-08 16:30:00,
2013-09-08 12:45:00,65.5,46.0,29.75,NNW,336,6.0,23.0,49,0.00,,,0.00,837,weatherlink.com 1.10,2013-09-08 16:45:00,
2013-09-08 13:00:00,65.3,44.0,29.76,NNW,340,10.0,26.0,47,0.00,,,0.00,823,weatherlink.com 1.10,2013-09-08 17:00:00,
2013-09-08 13:15:00,65.8,45.0,29.76,NNW,332,13.0,24.0,47,0.00,,,0.00,816,weatherlink.com 1.10,2013-09-08 17:15:00,
2013-09-08 13:31:00,65.5,45.0,29.77,NNW,345,19.0,26.0,47,0.00,,,0.00,805,weatherlink.com 1.10,2013-09-08 17:31:00,
2013-09-08 13:46:00,65.8,44.0,29.77,NW,317,10.0,24.0,46,0.00,,,0.00,805,weatherlink.com 1.10,2013-09-08 17:46:00,
2013-09-08 14:01:00,65.6,42.0,29.78,WNW,283,8.0,22.0,43,0.00,,,0.00,828,weatherlink.com 1.10,2013-09-08 18:01:00,
2013-09-08 14:16:00,65.8,43.0,29.79,WNW,294,22.0,22.0,44,0.00,,,0.00,190,weatherlink.com 1.10,2013-09-08 18:16:00,
2013-09-08 14:31:00,64.8,44.0,29.79,West,265,1.0,27.0,48,0.00,,,0.00,772,weatherlink.com 1.10,2013-09-08 18:31:00,
2013-09-08 14:46:00,64.2,42.0,29.80,North,350,21.0,29.0,44,0.00,,,0.00,754,weatherlink.com 1.10,2013-09-08 18:46:00,
2013-09-08 15:01:00,63.5,40.0,29.81,NW,325,9.0,29.0,42,0.00,,,0.00,411,weatherlink.com 1.10,2013-09-08 19:01:00,
2013-09-08 15:16:00,62.6,41.0,29.81,West,274,15.0,25.0,45,0.00,,,0.00,394,weatherlink.com 1.10,2013-09-08 19:16:00,
2013-09-08 15:31:00,62.4,41.0,29.82,NW,322,11.0,23.0,45,0.00,,,0.00,540,weatherlink.com 1.10,2013-09-08 19:31:00,
2013-09-08 15:46:00,62.7,40.0,29.82,NW,313,9.0,23.0,44,0.00,,,0.00,578,weatherlink.com 1.10,2013-09-08 19:46:00,
2013-09-08 16:01:00,62.3,41.0,29.83,NW,319,13.0,26.0,45,0.00,,,0.00,536,weatherlink.com 1.10,2013-09-08 20:01:00,
2013-09-08 16:16:00,62.1,41.0,29.83,NW,320,16.0,24.0,46,0.00,,,0.00,482,weatherlink.com 1.10,2013-09-08 20:16:00,
2013-09-08 16:31:00,62.1,41.0,29.84,NNW,337,18.0,21.0,47,0.00,,,0.00,436,weatherlink.com 1.10,2013-09-08 20:31:00,
2013-09-08 16:46:00,62.0,41.0,29.84,NNW,344,12.0,20.0,46,0.00,,,0.00,392,weatherlink.com 1.10,2013-09-08 20:46:00,
2013-09-08 17:01:00,61.5,41.0,29.86,North,-999,0.0,18.0,47,0.00,,,0.00,346,weatherlink.com 1.10,2013-09-08 21:01:00,
2013-09-08 17:16:00,61.2,40.0,29.87,North,-999,0.0,22.0,46,0.00,,,0.00,302,weatherlink.com 1.10,2013-09-08 21:16:00,
2013-09-08 17:31:00,60.5,40.0,29.87,NW,309,16.0,25.0,47,0.00,,,0.00,248,weatherlink.com 1.10,2013-09-08 21:31:00,
2013-09-08 17:46:00,60.1,40.0,29.87,NW,304,7.0,22.0,47,0.00,,,0.00,200,weatherlink.com 1.10,2013-09-08 21:46:00,
2013-09-08 18:01:00,59.5,40.0,29.88,WNW,301,8.0,18.0,48,0.00,,,0.00,156,weatherlink.com 1.10,2013-09-08 22:01:00,
2013-09-08 18:16:00,58.9,40.0,29.88,NNW,331,10.0,19.0,50,0.00,,,0.00,111,weatherlink.com 1.10,2013-09-08 22:16:00,
2013-09-08 18:31:00,58.4,40.0,29.89,NW,309,5.0,14.0,51,0.00,,,0.00,67,weatherlink.com 1.10,2013-09-08 22:31:00,
2013-09-08 18:46:00,57.5,40.0,29.90,NW,323,4.0,13.0,52,0.00,,,0.00,26,weatherlink.com 1.10,2013-09-08 22:46:00,
2013-09-08 19:01:00,56.5,40.0,29.91,NW,320,5.0,9.0,55,0.00,,,0.00,12,weatherlink.com 1.10,2013-09-08 23:01:00,
2013-09-08 19:16:00,54.8,41.0,29.92,NW,309,0.0,10.0,60,0.00,,,0.00,0,weatherlink.com 1.10,2013-09-08 23:16:00,
2013-09-08 19:31:00,53.9,41.0,29.93,NW,313,6.0,7.0,63,0.00,,,0.00,0,weatherlink.com 1.10,2013-09-08 23:31:00,
2013-09-08 19:46:00,53.3,41.0,29.94,NW,317,5.0,6.0,63,0.00,,,0.00,0,weatherlink.com 1.10,2013-09-08 23:46:00,
2013-09-08 20:01:00,52.6,41.0,29.95,NW,315,7.0,8.0,64,0.00,,,0.00,0,weatherlink.com 1.10,2013-09-09 00:01:00,
2013-09-08 20:16:00,52.0,40.0,29.96,NW,308,0.0,6.0,65,0.00,,,0.00,0,weatherlink.com 1.10,2013-09-09 00:16:00,
2013-09-08 20:31:00,49.6,42.0,29.98,NW,308,0.0,0.0,75,0.00,,,0.00,0,weatherlink.com 1.10,2013-09-09 00:31:00,
2013-09-08 20:46:00,49.4,41.0,29.98,NW,307,0.0,2.0,73,0.00,,,0.00,0,weatherlink.com 1.10,2013-09-09 00:46:00,
2013-09-08 21:01:00,48.2,42.0,29.99,NW,307,0.0,0.0,79,0.00,,,0.00,0,weatherlink.com 1.10,2013-09-09 01:01:00,
2013-09-08 21:17:00,49.1,40.0,29.99,WNW,302,5.0,7.0,72,0.00,,,0.00,0,weatherlink.com 1.10,2013-09-09 01:17:00,
2013-09-08 21:32:00,50.4,40.0,30.00,NW,312,6.0,9.0,67,0.00,,,0.00,0,weatherlink.com 1.10,2013-09-09 01:32:00,
2013-09-08 21:47:00,50.4,40.0,30.00,NW,311,3.0,7.0,68,0.00,,,0.00,0,weatherlink.com 1.10,2013-09-09 01:47:00,
2013-09-08 22:02:00,49.6,40.0,30.00,NW,311,2.0,8.0,70,0.00,,,0.00,0,weatherlink.com 1.10,2013-09-09 02:02:00,
2013-09-08 22:17:00,49.8,40.0,30.01,NW,311,1.0,6.0,68,0.00,,,0.00,0,weatherlink.com 1.10,2013-09-09 02:17:00,
2013-09-08 22:32:00,49.5,40.0,30.02,NW,311,2.0,5.0,70,0.00,,,0.00,0,weatherlink.com 1.10,2013-09-09 02:32:00,
2013-09-08 22:47:00,49.4,40.0,30.02,WNW,298,3.0,7.0,71,0.00,,,0.00,0,weatherlink.com 1.10,2013-09-09 02:47:00,
2013-09-08 23:02:00,47.6,41.0,30.02,WNW,296,0.0,5.0,77,0.00,,,0.00,0,weatherlink.com 1.10,2013-09-09 03:02:00,
2013-09-08 23:17:00,46.2,40.0,30.03,West,270,0.0,7.0,80,0.00,,,0.00,0,weatherlink.com 1.10,2013-09-09 03:17:00,
2013-09-08 23:32:00,47.7,40.0,30.02,WSW,258,0.0,11.0,74,0.00,,,0.00,0,weatherlink.com 1.10,2013-09-09 03:32:00,
2013-09-08 23:47:00,47.7,40.0,30.03,WNW,295,5.0,6.0,74,0.00,,,0.00,0,weatherlink.com 1.10,2013-09-09 03:47:00,